Downstream station:
SHEF ID: BZRK1 SF COTTONWOOD R NR BAZAAR, KS
STATION TYPE:
PRECIP STAGE RIV-FLOW BAT-LOAD
in ft cfs volt
Ccp-Rev Ccp-Rev Ccp-Rev Ccp-Rev
(US/Central)
07/20 00:00 0.00 7.13 56 12.71
07/20 01:00 0.00 7.11 54 12.71
07/20 02:00 0.00 7.12 55 12.65
07/20 03:00 0.00 7.11 54 12.65
07/20 04:00 0.00 7.12 55 12.65
07/20 05:00 0.00 7.12 55 12.65
07/20 06:00 0.00 7.11 54 12.60
07/20 07:00 0.00 7.11 54 12.60
07/20 08:00 0.00 7.11 54 12.71
07/20 09:00 0.00 7.10 53 13.18
07/20 10:00 0.00 7.11 54 13.48
07/20 11:00 0.00 7.13 56 13.65
07/20 12:00 0.00 7.11 54 13.59
07/20 13:00 0.00 7.12 55 13.59
07/20 14:00 0.00 7.11 54 13.53
07/20 15:00 0.00 7.11 54 13.53
07/20 16:00 0.00 7.12 55 13.42
07/20 17:00 0.00 7.13 56 13.36
07/20 18:00 0.00 7.12 55 13.36
07/20 19:00 0.00 7.11 54 13.48
07/20 20:00 0.00 7.12 55 13.12
07/20 21:00 0.00 7.11 54 12.77
07/20 22:00 0.00 7.11 54 12.71
07/20 23:00 0.00 7.11 54 12.71